EW7966 Weather Reports


time (UTC)temp
F
wind
direction
speed
knots
gust
knots
rain 1hr
in
rain 24hr
in
rain mn
in
humidity
%
barometer
mb
20260901184006 77 291 4.3 10.4 0.00 0.00 0.00 31 1020.5
20260901183504 77 264 6.1 12.2 0.00 0.00 0.00 32 1020.5
20260901183006 77 284 7.0 12.2 0.00 0.00 0.00 32 1020.5
20260901183002 77 284 7.0 12.2 0.00 0.00 0.00 32 1005.9
20260901182506 77 198 1.7 5.2 0.00 0.00 0.00 35 1020.5
20260901182006 76 304 0.9 5.2 0.00 0.00 0.00 33 1020.6
20260901181505 76 55 0.9 4.3 0.00 0.00 0.00 32 1020.7
20260901181007 76 300 2.6 7.0 0.00 0.00 0.00 32 1020.7
20260901180505 75 5 3.5 7.8 0.00 0.00 0.00 35 1020.8
20260901180007 75 319 4.3 8.7 0.00 0.00 0.00 35 1021.0
20260901180003 75 319 3.5 8.7 0.00 0.00 0.00 35 1006.3
20260901175504 75 303 3.5 9.6 0.00 0.00 0.00 34 1021.0
20260901175007 75 248 4.3 7.8 0.00 0.00 0.00 37 1021.0
20260901174513 74 333 2.6 7.8 0.00 0.00 0.00 40 1006.4
20260901174506 74 333 3.5 7.8 0.00 0.00 0.00 40 1021.0
20260901174008 73 244 2.6 7.8 0.00 0.00 0.00 45 1021.1
20260901173005 72 265 4.3 8.7 0.00 0.00 0.00 45 1021.2
20260901173003 72 265 4.3 8.7 0.00 0.00 0.00 45 1006.6
20260901172504 72 275 2.6 8.7 0.00 0.00 0.00 45 1021.3
20260901172006 71 246 3.5 8.7 0.00 0.00 0.00 49 1021.4
20260901171502 71 222 2.6 7.0 0.00 0.00 0.00 48 1006.9
20260901171005 71 284 3.5 7.0 0.00 0.00 0.00 47 1021.6
20260901170505 71 244 3.5 7.0 0.00 0.00 0.00 47 1021.6
20260901170007 71 250 2.6 7.8 0.00 0.00 0.00 48 1021.6
20260901170003 71 250 2.6 7.8 0.00 0.00 0.00 48 1006.9
20260901165505 70 284 2.6 11.3 0.00 0.00 0.00 51 1021.7
20260901165005 70 282 4.3 11.3 0.00 0.00 0.00 51 1021.7
20260901164504 69 281 3.5 9.6 0.00 0.00 0.00 51 1021.8
20260901164502 69 281 3.5 9.6 0.00 0.00 0.00 51 1007.1
20260901164010 69 306 4.3 7.8 0.00 0.00 0.00 52 1021.8
20260901163505 68 255 2.6 7.0 0.00 0.00 0.00 54 1021.7
20260901163007 68 260 2.6 4.3 0.00 0.00 0.00 54 1021.7
20260901163004 68 260 1.7 4.3 0.00 0.00 0.00 54 1007.0
20260901162505 68 270 1.7 7.0 0.00 0.00 0.00 54 1021.6
20260901162007 67 270 2.6 9.6 0.00 0.00 0.00 55 1021.7
20260901161506 67 242 4.3 8.7 0.00 0.00 0.00 54 1021.6
20260901161502 67 242 3.5 8.7 0.00 0.00 0.00 54 1006.9
20260901161005 67 246 3.5 8.7 0.00 0.00 0.00 55 1021.4
20260901160507 67 251 2.6 7.0 0.00 0.00 0.00 55 1021.4
20260901160006 66 263 2.6 7.8 0.00 0.00 0.00 55 1021.3
20260901155505 66 281 4.3 9.6 0.00 0.00 0.00 56 1021.3
20260901155005 66 283 4.3 9.6 0.00 0.00 0.00 56 1021.3
20260901154505 66 245 3.5 9.6 0.00 0.00 0.00 57 1021.2
20260901154502 66 245 2.6 9.6 0.00 0.00 0.00 57 1006.6
20260901153005 66 293 2.6 7.8 0.00 0.00 0.00 57 1021.1
20260901153002 66 293 2.6 7.8 0.00 0.00 0.00 57 1006.4
20260901152005 66 215 2.6 9.6 0.00 0.00 0.00 58 1021.1
20260901151504 66 301 4.3 10.4 0.00 0.00 0.00 57 1021.1
20260901151501 66 301 4.3 10.4 0.00 0.00 0.00 57 1006.4
20260901151006 66 262 5.2 10.4 0.00 0.00 0.00 57 1021.0
20260901150505 66 210 4.3 10.4 0.00 0.00 0.00 58 1020.8
20260901150008 65 252 4.3 10.4 0.00 0.00 0.00 59 1006.1
20260901145505 64 230 2.6 6.1 0.00 0.00 0.00 62 1021.0
20260901145005 64 266 2.6 4.3 0.00 0.00 0.00 64 1020.9
20260901144503 63 232 0.9 4.3 0.00 0.00 0.00 66 1006.2
20260901144005 63 240 1.7 4.3 0.00 0.00 0.00 65 1021.0
20260901143505 63 212 1.7 5.2 0.00 0.00 0.00 65 1020.7
20260901143006 63 236 1.7 7.8 0.00 0.00 0.00 66 1020.7
20260901143002 63 236 0.9 7.8 0.00 0.00 0.00 66 1006.0
20260901142506 63 248 2.6 7.8 0.00 0.00 0.00 65 1020.7
20260901142006 62 252 3.5 6.1 0.00 0.00 0.00 67 1020.6
20260901141506 62 246 2.6 4.3 0.00 0.00 0.00 69 1020.6
20260901141503 62 246 1.7 4.3 0.00 0.00 0.00 69 1005.8
20260901140504 62 248 0.9 4.3 0.00 0.00 0.00 69 1020.6
20260901140007 62 248 2.6 7.0 0.00 0.00 0.00 68 1020.6
20260901140002 62 248 1.7 7.0 0.00 0.00 0.00 68 1005.8
20260901135504 62 225 2.6 7.0 0.00 0.00 0.00 68 1020.6
20260901135006 62 230 1.7 6.1 0.00 0.00 0.00 69 1020.7
20260901134505 62 243 2.6 6.1 0.00 0.00 0.00 68 1020.7
20260901134502 62 243 2.6 6.1 0.00 0.00 0.00 68 1005.9
20260901133504 61 255 2.6 5.2 0.00 0.00 0.00 71 1020.5
20260901133005 60 280 1.7 5.2 0.00 0.00 0.00 73 1020.5
20260901133003 60 280 1.7 5.2 0.00 0.00 0.00 73 1005.6
20260901132505 60 238 0.9 5.2 0.00 0.00 0.00 74 1020.3
20260901131505 60 233 2.6 6.1 0.00 0.00 0.00 76 1020.3
20260901131502 60 233 1.7 6.1 0.00 0.00 0.00 76 1005.4
20260901131006 60 223 2.6 7.0 0.00 0.00 0.00 77 1020.2
20260901130505 60 200 3.5 7.0 0.00 0.00 0.00 77 1020.1
20260901130057 60 173 3.5 7.0 0.00 0.00 0.00 77 1005.2
20260901130007 60 227 4.3 7.0 0.00 0.00 0.00 77 1020.1
20260901130003 60 227 3.5 7.0 0.00 0.00 0.00 77 1005.2
20260901125504 59 205 2.6 7.0 0.00 0.00 0.00 77 1019.9
20260901125006 59 196 3.5 8.7 0.00 0.00 0.00 77 1019.9
20260901124505 59 201 3.5 8.7 0.00 0.00 0.00 77 1019.8
20260901124006 59 202 3.5 7.0 0.00 0.00 0.00 77 1019.9
20260901123504 60 209 3.5 7.8 0.00 0.00 0.00 76 1019.8
20260901123006 60 240 3.5 7.8 0.00 0.00 0.00 76 1004.7
20260901122505 60 233 3.5 6.1 0.00 0.00 0.00 76 1019.6
20260901122004 59 265 3.5 7.0 0.00 0.00 0.00 76 1019.5
20260901121502 59 206 2.6 6.1 0.00 0.00 0.00 77 1004.6
20260901121005 59 201 1.7 4.3 0.00 0.00 0.00 77 1019.4
20260901120006 59 234 2.6 6.1 0.00 0.00 0.00 77 1019.4
20260901114504 58 226 2.6 4.3 0.00 0.00 0.00 79 1019.5
20260901114005 58 226 0.9 2.6 0.00 0.00 0.00 79 1019.5
20260901113505 58 226 0.0 1.7 0.00 0.00 0.00 79 1019.6
20260901113006 58 226 0.0 5.2 0.00 0.00 0.00 79 1019.6
20260901113003 58 226 0.0 5.2 0.00 0.00 0.00 79 1004.8
20260901112504 58 173 1.7 4.3 0.00 0.00 0.00 80 1019.9
20260901112006 58 173 2.6 4.3 0.00 0.00 0.00 80 1019.8
20260901111503 58 173 1.7 3.5 0.00 0.00 0.00 80 1019.9
20260901111000 58 173 1.7 3.5 0.00 0.00 0.00 80 1019.9
20260901110003 58 173 0.9 3.5 0.00 0.00 0.00 80 1005.3
20260901105504 58 173 1.7 3.5 0.00 0.00 0.00 79 1020.1
20260901104505 58 173 1.7 2.6 0.00 0.00 0.00 79 1020.2
20260901104502 58 173 0.9 2.6 0.00 0.00 0.00 79 1005.4
20260901104006 58 173 0.9 2.6 0.00 0.00 0.00 80 1020.3
20260901103504 58 173 0.9 2.6 0.00 0.00 0.00 80 1020.2
20260901103005 58 173 0.0 1.7 0.00 0.00 0.00 80 1020.2
20260901103002 58 173 0.0 1.7 0.00 0.00 0.00 80 1005.4
20260901102504 58 173 0.0 2.6 0.00 0.00 0.00 79 1020.3
20260901102006 58 173 0.9 2.6 0.00 0.00 0.00 79 1020.2
20260901101503 58 173 0.0 1.7 0.00 0.00 0.00 80 1005.6
20260901101005 58 173 0.0 1.7 0.00 0.00 0.00 79 1020.4
20260901100504 58 173 0.0 2.6 0.00 0.00 0.00 78 1020.3
20260901100009 58 173 0.0 2.6 0.00 0.00 0.00 78 1020.4
20260901100003 58 173 0.0 2.6 0.00 0.00 0.00 78 1005.7
20260901095006 58 173 1.7 5.2 0.00 0.00 0.00 78 1020.6
20260901094507 58 173 2.6 5.2 0.00 0.00 0.00 79 1006.0
20260901094505 58 173 3.5 5.2 0.00 0.00 0.00 79 1020.7
20260901093504 57 112 2.6 3.5 0.00 0.00 0.00 80 1020.7
20260901093006 57 112 0.9 1.7 0.00 0.00 0.00 80 1020.7
20260901093002 57 112 0.0 1.7 0.00 0.00 0.00 80 1006.0
20260901092504 57 112 0.9 3.5 0.00 0.00 0.00 79 1020.7
20260901092005 58 112 1.7 3.5 0.00 0.00 0.00 79 1020.8
20260901091505 57 112 2.6 3.5 0.00 0.00 0.00 79 1020.8
20260901091503 57 112 2.6 3.5 0.00 0.00 0.00 79 1006.2
20260901091005 57 112 2.6 3.5 0.00 0.00 0.00 80 1020.8
20260901090504 56 112 1.7 1.7 0.00 0.00 0.00 81 1021.0
20260901090104 56 112 0.0 0.0 0.00 0.00 0.00 81 1006.3
20260901090000 56 112 0.0 0.0 0.00 0.00 0.00 81 1021.0
20260901085504 56 112 0.0 1.7 0.00 0.00 0.00 81 1021.0
20260901085006 56 112 0.9 1.7 0.00 0.00 0.00 81 1021.0
20260901084504 56 112 0.0 2.6 0.00 0.00 0.00 81 1021.0
20260901084502 56 112 0.0 2.6 0.00 0.00 0.00 81 1006.3
20260901084005 56 112 0.9 5.2 0.00 0.00 0.00 80 1020.9
20260901083505 56 112 4.3 5.2 0.00 0.00 0.00 79 1021.0
20260901083058 57 184 1.7 3.5 0.00 0.00 0.00 78 1006.5
20260901083005 57 184 1.7 2.6 0.00 0.00 0.00 78 1021.2
20260901083003 57 184 0.9 2.6 0.00 0.00 0.00 78 1006.5
20260901082506 57 184 0.9 2.6 0.00 0.00 0.00 78 1021.2
20260901082005 57 184 0.9 1.7 0.00 0.00 0.00 78 1021.5
20260901081504 57 184 0.9 1.7 0.00 0.00 0.00 78 1021.5
20260901081004 56 184 0.9 2.6 0.00 0.00 0.00 78 1021.5
20260901080504 56 184 0.9 1.7 0.00 0.00 0.00 79 1021.6
20260901080007 56 184 0.9 1.7 0.00 0.00 0.00 80 1021.6
20260901080005 56 184 0.9 1.7 0.00 0.00 0.00 80 1006.9
20260901075504 56 184 0.0 2.6 0.00 0.00 0.00 80 1021.7
20260901075005 56 184 0.0 2.6 0.00 0.00 0.00 80 1021.6
20260901074504 55 184 1.7 3.5 0.00 0.00 0.00 81 1021.7
20260901074502 55 184 0.9 3.5 0.00 0.00 0.00 81 1007.0
20260901074005 55 184 2.6 3.5 0.00 0.00 0.00 82 1021.7
20260901073504 55 184 0.9 2.6 0.00 0.00 0.00 81 1021.8
20260901073006 55 184 0.0 1.7 0.00 0.00 0.00 81 1021.8
20260901073002 55 184 0.0 1.7 0.00 0.00 0.00 81 1007.1
20260901072504 55 184 0.0 0.9 0.00 0.00 0.00 80 1021.8
20260901072001 55 184 0.0 2.6 0.00 0.00 0.00 79 1021.7
20260901071600 55 184 0.0 2.6 0.00 0.00 0.00 79 1006.9
20260901071502 55 184 0.0 2.6 0.00 0.00 0.00 79 1021.6
20260901071006 55 184 1.7 2.6 0.00 0.00 0.00 79 1021.6
20260901070505 56 184 0.9 1.7 0.00 0.00 0.00 77 1021.6
20260901070007 57 184 0.9 1.7 0.00 0.00 0.00 75 1021.6
20260901070002 57 184 0.0 1.7 0.00 0.00 0.00 75 1007.0
20260901064505 59 184 0.9 2.6 0.00 0.00 0.00 73 1021.6
20260901064503 59 184 0.9 2.6 0.00 0.00 0.00 73 1006.9
20260901064006 59 184 0.9 1.7 0.00 0.00 0.00 73 1021.5
20260901063504 59 184 0.0 0.9 0.00 0.00 0.00 73 1021.3
20260901063005 58 184 0.0 1.7 0.00 0.00 0.00 73 1021.2
20260901062505 59 184 0.9 1.7 0.00 0.00 0.00 73 1021.4
20260901061502 59 184 0.0 1.7 0.00 0.00 0.00 72 1006.7
20260901061006 59 184 0.9 1.7 0.00 0.00 0.00 72 1021.5
20260901060505 59 184 0.0 3.5 0.00 0.00 0.00 72 1021.5
20260901060008 59 184 2.6 3.5 0.00 0.00 0.00 73 1021.6
20260901060004 59 184 1.7 3.5 0.00 0.00 0.00 73 1006.9
20260901055505 59 184 0.9 2.6 0.00 0.01 0.00 73 1021.6
20260901055006 59 184 0.9 2.6 0.00 0.01 0.00 74 1021.7
20260901054558 59 184 0.9 2.6 0.00 0.01 0.00 74 1006.9
20260901054500 59 184 0.9 2.6 0.00 0.01 0.00 74 1021.6
20260901054006 59 184 0.0 1.7 0.00 0.01 0.00 75 1021.8
20260901053504 59 184 0.9 1.7 0.00 0.01 0.00 75 1021.8
20260901053007 59 184 0.0 3.5 0.00 0.01 0.00 75 1021.8
20260901053004 59 184 0.0 3.5 0.00 0.01 0.00 75 1007.0
20260901052504 59 184 1.7 3.5 0.00 0.01 0.00 75 1021.9
20260901051503 59 184 0.9 2.6 0.00 0.01 0.00 75 1007.0
20260901051006 60 184 1.7 3.5 0.00 0.01 0.00 74 1021.8
20260901050506 60 184 0.9 7.8 0.00 0.01 0.00 73 1021.8
20260901050006 60 184 4.3 7.8 0.00 0.01 0.00 74 1022.0
20260901050004 60 184 4.3 7.8 0.00 0.01 0.00 74 1007.2
20260901045506 60 189 3.5 7.8 0.00 0.02 0.00 75 1022.0
20260901044507 59 171 6.1 8.7 0.00 0.02 0.00 76 1021.8
20260901044006 59 144 6.1 7.0 0.00 0.02 0.00 76 1022.0
20260901043007 59 138 5.2 7.0 0.00 0.02 0.00 76 1021.8
20260901043003 59 138 4.3 7.0 0.00 0.02 0.00 76 1007.0
20260901042505 59 161 3.5 6.1 0.00 0.02 0.00 76 1021.6
20260901041505 60 120 4.3 6.1 0.00 0.02 0.00 75 1021.6
20260901041503 60 120 3.5 6.1 0.00 0.02 0.00 75 1006.8
20260901040505 60 265 1.7 5.2 0.00 0.02 0.00 74 1021.7
20260901040003 60 265 0.9 5.2 0.00 0.02 0.00 74 1006.9
20260901035505 61 265 1.7 4.3 0.00 0.02 0.00 73 1021.6
20260901035007 61 265 1.7 4.3 0.00 0.02 0.00 73 1021.6
20260901034506 61 220 2.6 5.2 0.00 0.02 0.00 73 1021.8
20260901034007 61 275 0.9 6.1 0.00 0.02 0.00 72 1022.0
20260901033505 61 275 2.6 9.6 0.00 0.02 0.00 72 1021.9
20260901033059 62 273 1.7 11.3 0.00 0.02 0.00 72 1007.0
20260901033001 62 273 3.5 11.3 0.00 0.02 0.00 72 1021.8
20260901032505 62 304 5.2 12.2 0.00 0.02 0.00 72 1021.8
20260901032006 62 302 6.1 13.0 0.00 0.02 0.00 72 1021.8
20260901031505 62 287 8.7 14.8 0.00 0.02 0.00 71 1021.8
20260901031503 62 287 7.8 14.8 0.00 0.02 0.00 71 1007.1
20260901031001 63 288 9.6 17.4 0.00 0.02 0.00 68 1021.8
20260901030506 63 311 9.6 15.6 0.00 0.02 0.00 67 1021.8
20260901030007 64 290 7.8 14.8 0.00 0.02 0.00 65 1021.9
20260901030005 64 290 7.0 14.8 0.00 0.02 0.00 65 1007.3
20260901025506 64 312 8.7 12.2 0.00 0.02 0.00 63 1021.9
20260901025006 65 312 5.2 10.4 0.00 0.02 0.00 62 1021.8
20260901024505 65 277 4.3 14.8 0.00 0.02 0.00 61 1021.8
20260901024502 65 277 4.3 14.8 0.00 0.02 0.00 61 1007.2
20260901024006 65 284 6.1 12.2 0.00 0.02 0.00 60 1021.7
20260901023506 65 328 4.3 12.2 0.00 0.02 0.00 59 1021.5
20260901023006 66 342 6.1 12.2 0.00 0.02 0.00 59 1021.2
20260901023003 66 262 5.2 12.2 0.00 0.02 0.00 59 1006.6
20260901022501 67 210 7.0 18.2 0.00 0.02 0.00 57 1021.2
20260901022007 68 331 7.8 18.2 0.00 0.02 0.00 52 1021.0
20260901021504 69 241 5.2 9.6 0.00 0.02 0.00 47 1020.8
20260901021006 69 200 1.7 3.5 0.00 0.02 0.00 47 1020.3
20260901020008 70 200 1.7 5.2 0.00 0.02 0.00 45 1019.7
20260901020005 70 200 0.9 5.2 0.00 0.02 0.00 45 1005.1
20260901015505 70 200 3.5 7.0 0.00 0.02 0.00 45 1019.7
20260901015007 70 180 5.2 7.0 0.00 0.02 0.00 45 1019.5
20260901014504 70 170 5.2 8.7 0.00 0.02 0.00 46 1019.4
20260901014502 70 170 4.3 8.7 0.00 0.02 0.00 46 1004.8
20260901014006 70 176 5.2 8.7 0.00 0.02 0.00 46 1019.3
20260901013007 70 142 5.2 8.7 0.00 0.02 0.00 46 1019.3
20260901013004 70 142 5.2 8.7 0.00 0.02 0.00 46 1004.6
20260901012012 70 140 7.8 11.3 0.00 0.02 0.00 46 1019.3
20260901011506 70 162 7.0 10.4 0.00 0.02 0.00 46 1019.3
20260901011006 70 151 5.2 9.6 0.00 0.02 0.00 46 1019.3
20260901010505 70 161 6.1 10.4 0.00 0.02 0.00 46 1019.3
20260901010007 71 136 7.0 11.3 0.00 0.02 0.00 45 1019.3
20260901010004 71 136 7.0 11.3 0.00 0.02 0.00 45 1004.6
20260901005506 71 150 8.7 13.9 0.00 0.02 0.00 44 1019.2
20260901005007 71 159 9.6 14.8 0.00 0.02 0.00 43 1019.3
20260901004505 72 158 9.6 16.5 0.00 0.02 0.00 43 1019.5
20260901003506 74 127 11.3 14.8 0.00 0.02 0.00 40 1019.7
20260901003007 75 109 8.7 17.4 0.00 0.02 0.00 40 1019.7
20260901002505 75 105 12.2 17.4 0.00 0.02 0.00 41 1019.7
20260901002006 75 76 10.4 15.6 0.00 0.02 0.00 43 1019.6
20260901001502 75 92 8.7 15.6 0.00 0.02 0.00 42 1005.2
20260901001006 76 96 10.4 15.6 0.00 0.02 0.00 41 1019.7
20260901000505 76 94 8.7 13.9 0.00 0.02 0.00 42 1019.8
20260901000004 76 92 8.7 13.9 0.00 0.02 0.00 40 1005.4
20260831235505 77 110 7.0 13.0 0.00 0.02 0.00 39 1019.9
20260831234506 77 107 9.6 14.8 0.00 0.02 0.00 38 1005.3
20260831234007 77 113 7.8 11.3 0.00 0.02 0.00 37 1019.9
20260831233506 77 109 7.0 10.4 0.00 0.02 0.00 38 1019.8
20260831233004 77 104 6.1 10.4 0.00 0.02 0.00 38 1005.5
20260831232008 77 78 5.2 10.4 0.00 0.02 0.00 37 1020.0
20260831231505 77 98 7.0 10.4 0.00 0.02 0.00 37 1020.0
20260831231503 77 98 7.0 10.4 0.00 0.02 0.00 37 1005.8
20260831230506 77 67 5.2 9.6 0.00 0.02 0.00 38 1020.0
20260831230009 76 57 5.2 9.6 0.00 0.02 0.00 37 1020.0
20260831230004 76 57 5.2 9.6 0.00 0.02 0.00 37 1005.9
20260831225505 76 87 6.1 7.8 0.00 0.02 0.00 38 1020.1
20260831225002 76 83 3.5 7.0 0.00 0.02 0.00 37 1020.1
20260831224505 76 99 4.3 7.8 0.00 0.02 0.00 37 1020.3
20260831224503 76 99 4.3 7.8 0.00 0.02 0.00 37 1006.2
20260831224007 77 84 5.2 9.6 0.00 0.02 0.00 36 1020.3
20260831223505 77 78 3.5 9.6 0.00 0.02 0.00 34 1020.2
20260831223005 78 106 1.7 7.8 0.00 0.02 0.00 34 1020.4
20260831223003 78 106 1.7 7.8 0.00 0.02 0.00 34 1006.3
20260831222505 78 90 4.3 9.6 0.00 0.02 0.00 33 1020.5
20260831221503 78 128 0.9 7.8 0.00 0.02 0.00 32 1006.6
20260831220011 78 94 4.3 7.8 0.00 0.02 0.00 32 1020.7
20260831220003 78 94 4.3 7.8 0.00 0.02 0.00 32 1006.7
20260831215504 77 130 3.5 7.0 0.00 0.02 0.00 33 1020.7
20260831214504 77 91 2.6 7.8 0.00 0.02 0.00 35 1020.6
20260831213505 77 154 3.5 6.1 0.00 0.02 0.00 33 1020.9
20260831213003 77 124 2.6 6.1 0.00 0.02 0.00 35 1007.0
20260831212505 76 163 4.3 7.8 0.00 0.02 0.00 35 1021.1
20260831212007 76 150 2.6 7.8 0.00 0.02 0.00 35 1021.1
20260831211505 76 89 3.5 7.8 0.00 0.02 0.00 35 1021.1
20260831211503 76 89 2.6 7.8 0.00 0.02 0.00 35 1007.1
20260831211006 77 119 6.1 7.8 0.00 0.02 0.00 34 1021.2
20260831210505 77 112 5.2 7.8 0.00 0.02 0.00 35 1021.1
20260831210006 77 149 5.2 8.7 0.00 0.02 0.00 35 1021.1
20260831210003 77 149 4.3 8.7 0.00 0.02 0.00 35 1007.1
20260831205006 77 174 6.1 10.4 0.00 0.02 0.00 34 1021.3
20260831204505 76 171 6.1 8.7 0.00 0.02 0.00 34 1021.4
20260831204503 76 171 5.2 8.7 0.00 0.02 0.00 34 1007.3
20260831204005 76 148 4.3 7.8 0.00 0.02 0.00 34 1021.4
20260831203505 76 159 2.6 7.0 0.00 0.02 0.00 32 1021.5
20260831203007 76 138 2.6 8.7 0.00 0.02 0.00 34 1021.6
20260831203002 76 138 1.7 8.7 0.00 0.02 0.00 34 1007.5
20260831202504 76 169 4.3 8.7 0.00 0.02 0.00 36 1021.6
20260831202006 76 138 4.3 8.7 0.00 0.02 0.00 35 1021.6
20260831201559 76 93 6.1 9.6 0.00 0.02 0.00 36 1007.7
20260831201505 76 107 6.1 9.6 0.00 0.02 0.00 35 1021.7
20260831201007 77 134 6.1 9.6 0.00 0.02 0.00 35 1021.6
20260831200504 77 61 4.3 7.8 0.00 0.02 0.00 35 1021.7
20260831200008 76 164 3.5 8.7 0.00 0.02 0.00 34 1007.8
20260831195505 76 130 6.1 8.7 0.00 0.02 0.00 37 1021.8
20260831195007 77 128 4.3 8.7 0.00 0.02 0.00 35 1021.8
20260831194505 77 107 4.3 11.3 0.00 0.02 0.00 34 1021.9
20260831194503 77 107 3.5 11.3 0.00 0.02 0.00 34 1007.9
20260831194005 77 120 4.3 9.6 0.00 0.02 0.00 35 1021.9
20260831193505 77 96 5.2 8.7 0.00 0.02 0.00 34 1021.9
20260831193006 78 105 5.2 7.8 0.00 0.02 0.00 33 1022.0
20260831193003 78 117 5.2 7.8 0.00 0.02 0.00 33 1008.0
20260831192006 78 137 5.2 9.6 0.00 0.02 0.00 35 1022.0
20260831191506 78 46 4.3 9.6 0.00 0.02 0.00 35 1022.0
20260831191503 78 46 4.3 9.6 0.00 0.02 0.00 35 1008.0
20260831191008 77 57 3.5 9.6 0.00 0.02 0.00 35 1022.1
20260831190006 77 64 2.6 6.1 0.00 0.02 0.00 34 1022.2
20260831190003 77 64 1.7 6.1 0.00 0.02 0.00 34 1008.2
20260831185505 77 327 1.7 8.7 0.00 0.02 0.00 37 1022.3
20260831185006 77 44 5.2 8.7 0.00 0.02 0.00 35 1022.4
20260831184505 77 47 2.6 9.6 0.00 0.02 0.00 34 1022.4
20260831184503 77 47 2.6 9.6 0.00 0.02 0.00 34 1008.3